Volver al catálogo

STARLINK-36737

ActivoComunicacionesSSO
NORAD 67740·PAYLOAD·🇺🇸 United States

Lanzado Feb 11, 2026 desde Vandenberg Space Force Base

Loading…

Próximos Pases (próximas 24 horas)

TLE

ActualizadoSource: CelesTrak SupGP

Época: Sep 15, 2026, 03:54 UTC

1 67740C 26026V   26258.16298611 -.00042274  00000+0 -13123-2 0  2587
2 67740  97.2838 310.1138 0001012  88.1632 334.6104 15.33461365    11

Sigue STARLINK-36737 en tiempo real con AllMySat

Download on the App Store